Location: *
(51.4660°N, 0.3360°W)
Time: 12:34:26
(UTC+00:00)

HJ-1C - Pass Details

Date: 19 September 2019
Orbit: 435 x 449 km, 97.2° (Epoch: 16 October)

Event Time Altitude Azimuth Distance (km) Brightness Sun altitude
Rises 19:15:16 0° 176° (S) 2,437 6.9 -11.2°
Reaches altitude 10° 19:17:19 10° 181° (S) 1,573 6.0 -11.5°
Maximum altitude 19:20:37 53° 260° (W) 558 4.2 -12.0°
Drops below altitude 10° 19:23:58 10° 338° (NNW) 1,592 6.8 -12.5°
Sets 19:26:03 0° 344° (NNW) 2,470 7.7 -12.8°
